Tracking 20066 objects as of 6-Dec-2019
HD Live streaming from Space Station
objects crossing your sky now

ARIANE 42L R/B

Track ARIANE 42L R/B now!
10-day predictions


NORAD ID: 25586
Int'l Code: 1998-075B
Perigee: 187.8 km
Apogee: 16,180.9 km
Inclination: 7.5 °
Period: 291.3 minutes
Semi major axis: 14555 km
RCS: 21.3079 m2 (large)
Launch date: December 22, 1998
Source: France (FR)
Launch site: FRENCH GUIANA (FRGUI)

Note: This is a ROCKET BODY
aabbcc
Your satellite tracking list
Your tracking list is empty




NASA's NSSDC Master Catalog

Two Line Element Set (TLE):
1 25586U 98075B   19340.47990495  .00086206 -30910-6  11243-2 0  9994
2 25586   7.4998 125.9085 5493893 331.1573   7.1850  4.94388973271690
Source of the keplerian elements: AFSPC